Time,TemperatureF,DewpointF,PressureIn,WindDirection,WindDirectionDegrees,WindSpeedMPH,WindSpeedGustMPH,Humidity,HourlyPrecipIn,Conditions,Clouds,dailyrainin,SoftwareType,DateUTC
2013-06-08 00:01:00,67.3,66.9,29.72,NW,315,9.8,9.8,99,0.02,,,0.00,meteobridge,2013-06-08 04:01:00,
2013-06-08 00:02:00,67.3,66.9,29.72,NW,315,3.1,9.8,99,0.02,,,0.00,meteobridge,2013-06-08 04:02:00,
2013-06-08 00:05:00,67.5,67.1,29.73,West,270,3.8,5.4,99,0.02,,,0.00,meteobridge,2013-06-08 04:05:00,
2013-06-08 00:10:00,67.6,67.3,29.73,North,0,6.0,6.0,99,0.02,,,0.00,meteobridge,2013-06-08 04:10:00,
2013-06-08 00:15:00,67.8,67.5,29.72,South,180,3.8,4.5,99,0.02,,,0.00,meteobridge,2013-06-08 04:15:00,
2013-06-08 00:20:00,67.8,67.5,29.72,NE,45,3.8,6.0,99,0.02,,,0.00,meteobridge,2013-06-08 04:20:00,
2013-06-08 00:26:00,67.8,67.5,29.72,East,90,4.5,4.5,99,0.02,,,0.00,meteobridge,2013-06-08 04:26:00,
2013-06-08 00:31:00,67.8,67.5,29.72,North,0,7.6,7.6,99,0.01,,,0.00,meteobridge,2013-06-08 04:31:00,
2013-06-08 00:36:00,68.0,67.6,29.72,NNE,23,6.9,6.9,99,0.00,,,0.00,meteobridge,2013-06-08 04:36:00,
2013-06-08 00:41:00,67.8,67.5,29.71,NE,45,3.8,5.4,99,0.00,,,0.00,meteobridge,2013-06-08 04:41:00,
2013-06-08 00:46:00,67.8,67.5,29.71,North,0,4.5,4.5,99,0.00,,,0.00,meteobridge,2013-06-08 04:46:00,
2013-06-08 00:51:00,68.0,67.6,29.72,NE,45,3.1,7.6,99,0.00,,,0.00,meteobridge,2013-06-08 04:51:00,
2013-06-08 00:56:00,68.0,67.6,29.71,East,90,5.4,5.4,99,0.00,,,0.00,meteobridge,2013-06-08 04:56:00,
2013-06-08 01:02:00,68.0,67.6,29.71,SW,225,5.4,5.4,99,0.00,,,0.00,meteobridge,2013-06-08 05:02:00,
2013-06-08 01:07:00,68.0,67.6,29.71,North,0,4.5,4.5,99,0.00,,,0.00,meteobridge,2013-06-08 05:07:00,
2013-06-08 01:12:00,68.2,67.8,29.71,SW,225,4.5,4.5,99,0.00,,,0.00,meteobridge,2013-06-08 05:12:00,
2013-06-08 01:17:00,68.0,67.6,29.70,East,90,5.4,5.4,99,0.00,,,0.00,meteobridge,2013-06-08 05:17:00,
2013-06-08 01:22:00,68.0,67.6,29.70,NE,45,5.4,5.4,99,0.00,,,0.00,meteobridge,2013-06-08 05:22:00,
2013-06-08 01:27:00,68.0,67.6,29.70,NE,45,9.8,9.8,99,0.00,,,0.00,meteobridge,2013-06-08 05:27:00,
2013-06-08 01:33:00,68.0,67.6,29.70,NE,45,3.1,5.4,99,0.00,,,0.00,meteobridge,2013-06-08 05:33:00,
2013-06-08 01:38:00,68.0,67.6,29.70,ENE,68,3.8,7.6,99,0.00,,,0.00,meteobridge,2013-06-08 05:38:00,
2013-06-08 01:43:00,68.0,67.6,29.70,East,90,3.8,6.0,99,0.00,,,0.00,meteobridge,2013-06-08 05:43:00,
2013-06-08 01:48:00,67.8,67.5,29.70,East,90,4.5,4.5,99,0.00,,,0.00,meteobridge,2013-06-08 05:48:00,
2013-06-08 01:53:00,68.0,67.6,29.70,North,0,3.1,4.5,99,0.00,,,0.00,meteobridge,2013-06-08 05:53:00,
2013-06-08 01:58:00,67.8,67.5,29.69,NE,45,3.8,3.8,99,0.00,,,0.00,meteobridge,2013-06-08 05:58:00,
2013-06-08 02:04:00,67.8,67.5,29.69,West,270,4.5,7.6,99,0.00,,,0.00,meteobridge,2013-06-08 06:04:00,
2013-06-08 02:09:00,67.8,67.5,29.69,NE,45,3.8,6.9,99,0.00,,,0.00,meteobridge,2013-06-08 06:09:00,
2013-06-08 02:14:00,67.6,67.3,29.69,East,90,6.0,6.0,99,0.00,,,0.00,meteobridge,2013-06-08 06:14:00,
2013-06-08 02:19:00,67.6,67.3,29.68,SE,135,6.9,6.9,99,0.00,,,0.00,meteobridge,2013-06-08 06:19:00,
2013-06-08 02:24:00,67.5,67.1,29.68,North,0,3.1,3.1,99,0.00,,,0.00,meteobridge,2013-06-08 06:24:00,
2013-06-08 02:29:00,67.5,67.1,29.68,South,180,3.1,3.8,99,0.00,,,0.00,meteobridge,2013-06-08 06:29:00,
2013-06-08 02:35:00,67.3,66.9,29.67,South,180,3.1,3.1,99,0.00,,,0.00,meteobridge,2013-06-08 06:35:00,
2013-06-08 02:40:00,67.3,66.9,29.67,North,0,3.8,5.4,99,0.00,,,0.00,meteobridge,2013-06-08 06:40:00,
2013-06-08 02:45:00,67.3,66.9,29.67,NE,45,4.5,6.0,99,0.00,,,0.00,meteobridge,2013-06-08 06:45:00,
2013-06-08 02:50:00,67.1,66.7,29.66,NE,45,6.0,6.0,99,0.00,,,0.00,meteobridge,2013-06-08 06:50:00,
2013-06-08 02:55:00,67.5,67.1,29.66,NE,45,8.3,8.3,99,0.00,,,0.00,meteobridge,2013-06-08 06:55:00,
2013-06-08 03:00:00,67.5,67.1,29.66,West,270,3.8,4.5,99,0.00,,,0.00,meteobridge,2013-06-08 07:00:00,
2013-06-08 03:06:00,67.1,66.7,29.65,NW,315,3.8,3.8,99,0.00,,,0.00,meteobridge,2013-06-08 07:06:00,
2013-06-08 03:11:00,67.1,66.7,29.65,NE,45,3.1,5.4,99,0.00,,,0.00,meteobridge,2013-06-08 07:11:00,
2013-06-08 03:16:00,67.1,66.7,29.65,NE,45,5.4,5.4,99,0.00,,,0.00,meteobridge,2013-06-08 07:16:00,
2013-06-08 03:21:00,67.1,66.7,29.65,NW,315,3.8,4.5,99,0.00,,,0.00,meteobridge,2013-06-08 07:21:00,
2013-06-08 03:26:00,66.9,66.6,29.65,North,0,4.5,4.5,99,0.00,,,0.00,meteobridge,2013-06-08 07:26:00,
2013-06-08 03:31:00,66.6,66.2,29.64,NE,45,6.0,6.0,99,0.00,,,0.00,meteobridge,2013-06-08 07:31:00,
2013-06-08 03:36:00,66.2,65.8,29.64,East,90,3.1,5.4,99,0.00,,,0.00,meteobridge,2013-06-08 07:36:00,
2013-06-08 03:42:00,66.2,65.8,29.64,East,90,6.9,6.9,99,0.01,,,0.01,meteobridge,2013-06-08 07:42:00,
2013-06-08 03:47:00,66.4,66.0,29.64,NE,45,3.8,3.8,99,0.01,,,0.01,meteobridge,2013-06-08 07:47:00,
2013-06-08 03:52:00,66.4,66.0,29.63,East,90,3.8,3.8,99,0.01,,,0.01,meteobridge,2013-06-08 07:52:00,
2013-06-08 03:57:00,66.4,66.0,29.63,NE,45,3.1,5.4,99,0.01,,,0.01,meteobridge,2013-06-08 07:57:00,
2013-06-08 04:02:00,66.4,66.0,29.63,NE,45,3.1,4.5,99,0.01,,,0.01,meteobridge,2013-06-08 08:02:00,
2013-06-08 04:07:00,66.4,66.0,29.62,West,270,3.8,5.4,99,0.01,,,0.01,meteobridge,2013-06-08 08:07:00,
2013-06-08 04:12:00,66.4,66.0,29.62,West,270,3.8,5.4,99,0.01,,,0.01,meteobridge,2013-06-08 08:12:00,
2013-06-08 04:17:00,66.7,66.4,29.62,SW,225,2.2,4.5,99,0.01,,,0.01,meteobridge,2013-06-08 08:17:00,
2013-06-08 04:23:00,66.9,66.6,29.62,South,180,3.8,5.4,99,0.06,,,0.06,meteobridge,2013-06-08 08:23:00,
2013-06-08 04:28:00,66.9,66.6,29.62,NW,315,3.1,5.4,99,0.07,,,0.07,meteobridge,2013-06-08 08:28:00,
2013-06-08 04:33:00,66.9,66.6,29.61,East,90,3.1,3.8,99,0.08,,,0.08,meteobridge,2013-06-08 08:33:00,
2013-06-08 04:38:00,66.7,66.4,29.61,SE,135,3.1,4.5,99,0.07,,,0.08,meteobridge,2013-06-08 08:38:00,
2013-06-08 04:43:00,66.6,66.2,29.61,NE,45,5.4,5.4,99,0.08,,,0.09,meteobridge,2013-06-08 08:43:00,
2013-06-08 04:49:00,66.6,66.2,29.61,SE,135,6.0,6.0,99,0.08,,,0.09,meteobridge,2013-06-08 08:49:00,
2013-06-08 04:54:00,66.6,66.2,29.60,SE,135,2.2,3.8,99,0.08,,,0.09,meteobridge,2013-06-08 08:54:00,
2013-06-08 04:59:00,66.6,66.2,29.60,SE,135,3.1,5.4,99,0.08,,,0.09,meteobridge,2013-06-08 08:59:00,
2013-06-08 05:04:00,66.6,66.2,29.60,SE,135,3.1,4.5,99,0.08,,,0.09,meteobridge,2013-06-08 09:04:00,
2013-06-08 05:09:00,66.6,66.2,29.59,NE,45,2.2,4.5,99,0.08,,,0.09,meteobridge,2013-06-08 09:09:00,
2013-06-08 05:14:00,66.4,66.0,29.59,NW,315,5.4,5.4,99,0.08,,,0.09,meteobridge,2013-06-08 09:14:00,
2013-06-08 05:20:00,66.2,65.8,29.59,North,0,3.1,3.1,99,0.04,,,0.09,meteobridge,2013-06-08 09:20:00,
2013-06-08 05:25:00,66.0,65.7,29.58,NE,45,3.1,3.1,99,0.02,,,0.09,meteobridge,2013-06-08 09:25:00,
2013-06-08 05:30:00,66.0,65.7,29.58,North,0,2.2,3.8,99,0.01,,,0.09,meteobridge,2013-06-08 09:30:00,
2013-06-08 05:35:00,66.0,65.7,29.57,East,90,3.1,3.1,99,0.01,,,0.09,meteobridge,2013-06-08 09:35:00,
2013-06-08 05:40:00,66.0,65.7,29.57,NW,315,3.1,6.0,99,0.01,,,0.09,meteobridge,2013-06-08 09:40:00,
2013-06-08 05:45:00,66.0,65.7,29.57,SSW,203,3.1,3.1,99,0.00,,,0.09,meteobridge,2013-06-08 09:45:00,
2013-06-08 05:51:00,65.7,65.3,29.56,SE,135,2.2,3.1,99,0.00,,,0.09,meteobridge,2013-06-08 09:51:00,
2013-06-08 05:56:00,65.3,64.9,29.56,SW,225,3.1,6.0,99,0.00,,,0.09,meteobridge,2013-06-08 09:56:00,
2013-06-08 06:01:00,64.9,64.6,29.56,NE,45,4.5,4.5,99,0.00,,,0.09,meteobridge,2013-06-08 10:01:00,
2013-06-08 06:06:00,64.8,64.4,29.55,East,90,2.2,3.1,99,0.00,,,0.09,meteobridge,2013-06-08 10:06:00,
2013-06-08 06:11:00,64.9,64.6,29.55,South,180,4.5,4.5,99,0.00,,,0.09,meteobridge,2013-06-08 10:11:00,
2013-06-08 06:16:00,65.3,64.9,29.55,East,90,6.0,6.0,99,0.00,,,0.09,meteobridge,2013-06-08 10:16:00,
2013-06-08 06:22:00,65.5,65.1,29.55,NW,315,3.8,4.5,99,0.00,,,0.09,meteobridge,2013-06-08 10:22:00,
2013-06-08 06:27:00,65.7,65.3,29.55,West,270,5.4,6.0,99,0.00,,,0.09,meteobridge,2013-06-08 10:27:00,
2013-06-08 06:32:00,65.8,65.5,29.54,North,0,5.4,5.4,99,0.02,,,0.12,meteobridge,2013-06-08 10:32:00,
2013-06-08 06:37:00,65.8,65.5,29.55,NE,45,3.8,6.0,99,0.06,,,0.15,meteobridge,2013-06-08 10:37:00,
2013-06-08 06:42:00,65.8,65.5,29.54,North,0,3.1,3.8,99,0.07,,,0.17,meteobridge,2013-06-08 10:42:00,
2013-06-08 06:47:00,65.8,65.5,29.54,North,0,3.1,5.4,99,0.09,,,0.19,meteobridge,2013-06-08 10:47:00,
2013-06-08 06:52:00,65.8,65.5,29.54,SE,135,3.8,3.8,99,0.12,,,0.21,meteobridge,2013-06-08 10:52:00,
2013-06-08 06:58:00,65.8,65.5,29.54,NE,45,3.8,5.4,99,0.13,,,0.22,meteobridge,2013-06-08 10:58:00,
2013-06-08 07:03:00,65.8,65.5,29.54,NE,45,5.4,5.4,99,0.14,,,0.24,meteobridge,2013-06-08 11:03:00,
2013-06-08 07:08:00,65.8,65.5,29.54,NNE,23,3.8,4.5,99,0.14,,,0.24,meteobridge,2013-06-08 11:08:00,
2013-06-08 07:13:00,66.0,65.7,29.53,South,180,3.8,3.8,99,0.15,,,0.25,meteobridge,2013-06-08 11:13:00,
2013-06-08 07:18:00,66.0,65.7,29.54,East,90,6.0,6.0,99,0.17,,,0.26,meteobridge,2013-06-08 11:18:00,
2013-06-08 07:23:00,65.8,65.5,29.53,North,0,3.1,3.8,99,0.17,,,0.26,meteobridge,2013-06-08 11:23:00,
2013-06-08 07:29:00,65.7,65.3,29.54,East,90,8.3,8.3,99,0.17,,,0.27,meteobridge,2013-06-08 11:29:00,
2013-06-08 07:34:00,65.5,65.1,29.53,North,0,4.5,4.5,99,0.13,,,0.27,meteobridge,2013-06-08 11:34:00,
2013-06-08 07:39:00,65.1,64.8,29.52,NE,45,3.8,4.5,99,0.11,,,0.27,meteobridge,2013-06-08 11:39:00,
2013-06-08 07:44:00,64.9,64.6,29.53,NE,45,6.0,6.0,99,0.09,,,0.27,meteobridge,2013-06-08 11:44:00,
2013-06-08 07:49:00,64.9,64.6,29.53,SW,225,3.1,4.5,99,0.08,,,0.28,meteobridge,2013-06-08 11:49:00,
2013-06-08 07:54:00,64.8,64.4,29.53,East,90,3.8,11.4,99,0.06,,,0.28,meteobridge,2013-06-08 11:54:00,
2013-06-08 08:00:00,64.4,64.0,29.53,SW,225,3.8,3.8,99,0.06,,,0.28,meteobridge,2013-06-08 12:00:00,
2013-06-08 08:05:00,64.2,63.3,29.53,NW,315,5.4,5.4,97,0.05,,,0.28,meteobridge,2013-06-08 12:05:00,
2013-06-08 08:10:00,63.9,63.0,29.54,East,90,3.8,5.4,97,0.04,,,0.28,meteobridge,2013-06-08 12:10:00,
2013-06-08 08:15:00,63.9,63.0,29.54,East,90,4.5,5.4,97,0.04,,,0.28,meteobridge,2013-06-08 12:15:00,
2013-06-08 08:20:00,63.9,63.0,29.54,ENE,68,3.1,3.1,97,0.02,,,0.28,meteobridge,2013-06-08 12:20:00,
2013-06-08 08:25:00,63.9,63.0,29.54,North,0,3.1,4.5,97,0.01,,,0.28,meteobridge,2013-06-08 12:25:00,
2013-06-08 08:31:00,63.9,63.0,29.54,NE,45,3.1,3.1,97,0.01,,,0.28,meteobridge,2013-06-08 12:31:00,
2013-06-08 08:36:00,64.2,63.3,29.55,North,0,3.8,3.8,97,0.01,,,0.28,meteobridge,2013-06-08 12:36:00,
2013-06-08 08:41:00,64.2,63.3,29.55,North,0,3.8,3.8,97,0.01,,,0.28,meteobridge,2013-06-08 12:41:00,
2013-06-08 08:46:00,64.2,63.3,29.56,NE,45,3.1,3.1,97,0.00,,,0.28,meteobridge,2013-06-08 12:46:00,
2013-06-08 08:51:00,64.2,63.3,29.57,North,0,2.2,5.4,97,0.00,,,0.28,meteobridge,2013-06-08 12:51:00,
2013-06-08 08:56:00,64.2,63.3,29.57,North,0,5.4,5.4,97,0.00,,,0.28,meteobridge,2013-06-08 12:56:00,
2013-06-08 09:02:00,64.4,64.0,29.57,West,270,3.8,5.4,99,0.00,,,0.28,meteobridge,2013-06-08 13:02:00,
2013-06-08 09:07:00,63.9,63.0,29.59,East,90,3.1,3.1,97,0.00,,,0.28,meteobridge,2013-06-08 13:07:00,
2013-06-08 09:12:00,61.3,60.8,29.59,NW,315,4.5,5.4,98,0.00,,,0.28,meteobridge,2013-06-08 13:12:00,
2013-06-08 09:17:00,59.9,59.5,29.60,South,180,3.1,7.6,99,0.00,,,0.28,meteobridge,2013-06-08 13:17:00,
2013-06-08 09:22:00,58.8,58.5,29.60,SE,135,3.1,7.6,99,0.00,,,0.28,meteobridge,2013-06-08 13:22:00,
2013-06-08 09:27:00,58.3,57.9,29.61,East,90,3.8,7.6,99,0.00,,,0.28,meteobridge,2013-06-08 13:27:00,
2013-06-08 09:33:00,58.1,57.7,29.62,SE,135,4.5,4.5,99,0.00,,,0.28,meteobridge,2013-06-08 13:33:00,
2013-06-08 09:38:00,58.1,57.7,29.62,SE,135,5.4,6.0,99,0.00,,,0.28,meteobridge,2013-06-08 13:38:00,
2013-06-08 09:43:00,58.1,57.7,29.62,SW,225,9.2,9.2,99,0.00,,,0.28,meteobridge,2013-06-08 13:43:00,
2013-06-08 09:48:00,57.9,57.6,29.63,SE,135,5.4,5.4,99,0.00,,,0.28,meteobridge,2013-06-08 13:48:00,
2013-06-08 09:53:00,57.7,57.4,29.63,West,270,4.5,6.9,99,0.00,,,0.28,meteobridge,2013-06-08 13:53:00,
2013-06-08 09:58:00,57.9,57.6,29.63,SW,225,3.8,4.5,99,0.00,,,0.28,meteobridge,2013-06-08 13:58:00,
2013-06-08 10:04:00,58.1,57.7,29.64,SE,135,6.9,8.3,99,0.00,,,0.28,meteobridge,2013-06-08 14:04:00,
2013-06-08 10:09:00,57.9,57.6,29.64,East,90,6.0,6.9,99,0.00,,,0.28,meteobridge,2013-06-08 14:09:00,
2013-06-08 10:14:00,58.1,57.7,29.64,SE,135,3.8,4.5,99,0.00,,,0.28,meteobridge,2013-06-08 14:14:00,
2013-06-08 10:19:00,58.6,58.3,29.65,South,180,5.4,7.6,99,0.00,,,0.28,meteobridge,2013-06-08 14:19:00,
2013-06-08 10:24:00,58.8,58.5,29.66,SE,135,5.4,9.2,99,0.00,,,0.28,meteobridge,2013-06-08 14:24:00,
2013-06-08 10:29:00,59.0,58.6,29.65,East,90,3.8,4.5,99,0.00,,,0.28,meteobridge,2013-06-08 14:29:00,
2013-06-08 10:35:00,59.2,58.8,29.66,SE,135,8.3,8.3,99,0.00,,,0.28,meteobridge,2013-06-08 14:35:00,
2013-06-08 10:40:00,59.4,59.0,29.68,SE,135,8.3,8.3,99,0.00,,,0.28,meteobridge,2013-06-08 14:40:00,
2013-06-08 10:45:00,59.5,59.2,29.69,North,0,3.8,6.9,99,0.00,,,0.28,meteobridge,2013-06-08 14:45:00,
2013-06-08 10:50:00,59.9,59.5,29.70,NE,45,6.9,6.9,99,0.00,,,0.28,meteobridge,2013-06-08 14:50:00,
2013-06-08 10:55:00,60.1,59.7,29.70,SE,135,5.4,6.0,99,0.00,,,0.28,meteobridge,2013-06-08 14:55:00,
2013-06-08 11:00:00,60.3,59.9,29.70,SE,135,3.8,4.5,99,0.00,,,0.28,meteobridge,2013-06-08 15:00:00,
2013-06-08 11:06:00,60.3,59.7,29.71,NE,45,3.8,5.4,98,0.00,,,0.28,meteobridge,2013-06-08 15:06:00,
2013-06-08 11:11:00,60.4,59.5,29.71,SE,135,2.2,5.4,97,0.00,,,0.28,meteobridge,2013-06-08 15:11:00,
2013-06-08 11:16:00,60.8,59.4,29.72,South,180,6.0,6.0,95,0.00,,,0.28,meteobridge,2013-06-08 15:16:00,
2013-06-08 11:21:00,60.8,59.0,29.73,SE,135,5.4,5.4,94,0.00,,,0.28,meteobridge,2013-06-08 15:21:00,
2013-06-08 11:26:00,61.0,59.0,29.74,ENE,68,3.8,6.0,93,0.00,,,0.28,meteobridge,2013-06-08 15:26:00,
2013-06-08 11:31:00,61.2,59.2,29.74,SE,135,5.4,5.4,93,0.00,,,0.28,meteobridge,2013-06-08 15:31:00,
2013-06-08 11:37:00,61.2,58.8,29.74,SE,135,4.5,4.5,92,0.00,,,0.28,meteobridge,2013-06-08 15:37:00,
2013-06-08 11:42:00,61.7,59.4,29.74,East,90,2.2,4.5,92,0.00,,,0.28,meteobridge,2013-06-08 15:42:00,
2013-06-08 11:47:00,62.1,59.7,29.75,South,180,3.8,3.8,92,0.00,,,0.28,meteobridge,2013-06-08 15:47:00,
2013-06-08 11:55:00,62.2,59.9,29.75,SSE,158,3.1,3.1,92,0.00,,,0.28,meteobridge,2013-06-08 15:55:00,
2013-06-08 12:01:00,63.9,60.3,29.76,South,180,3.8,3.8,88,0.00,,,0.28,meteobridge,2013-06-08 16:01:00,
2013-06-08 12:06:00,63.9,59.5,29.76,East,90,5.4,5.4,86,0.00,,,0.28,meteobridge,2013-06-08 16:06:00,
2013-06-08 12:11:00,63.5,59.2,29.76,SE,135,3.1,3.8,86,0.00,,,0.28,meteobridge,2013-06-08 16:11:00,
2013-06-08 12:16:00,63.5,59.2,29.77,SW,225,3.8,4.5,86,0.00,,,0.28,meteobridge,2013-06-08 16:16:00,
2013-06-08 12:21:00,63.1,58.8,29.77,East,90,2.2,4.5,86,0.00,,,0.28,meteobridge,2013-06-08 16:21:00,
2013-06-08 12:27:00,62.8,58.5,29.77,SE,135,2.2,4.5,86,0.00,,,0.28,meteobridge,2013-06-08 16:27:00,
2013-06-08 12:32:00,62.6,58.6,29.78,SE,135,3.8,4.5,87,0.00,,,0.28,meteobridge,2013-06-08 16:32:00,
2013-06-08 12:37:00,62.8,59.2,29.78,SW,225,2.2,3.1,88,0.00,,,0.28,meteobridge,2013-06-08 16:37:00,
2013-06-08 12:42:00,63.0,59.7,29.79,SW,225,3.1,3.1,89,0.00,,,0.28,meteobridge,2013-06-08 16:42:00,
2013-06-08 12:47:00,63.0,59.4,29.79,SE,135,2.2,2.2,88,0.00,,,0.28,meteobridge,2013-06-08 16:47:00,
2013-06-08 12:52:00,63.1,59.5,29.80,SE,135,1.6,3.1,88,0.00,,,0.28,meteobridge,2013-06-08 16:52:00,
2013-06-08 12:58:00,63.1,59.5,29.80,South,180,3.1,3.1,88,0.00,,,0.28,meteobridge,2013-06-08 16:58:00,
2013-06-08 13:03:00,63.1,59.5,29.80,SE,135,1.6,1.6,88,0.00,,,0.28,meteobridge,2013-06-08 17:03:00,
2013-06-08 13:08:00,63.3,59.7,29.80,East,90,1.6,2.2,88,0.00,,,0.28,meteobridge,2013-06-08 17:08:00,
2013-06-08 13:13:00,63.9,60.3,29.80,SSE,158,2.2,3.8,88,0.00,,,0.28,meteobridge,2013-06-08 17:13:00,
2013-06-08 13:18:00,64.9,61.3,29.80,North,0,3.8,4.5,88,0.00,,,0.28,meteobridge,2013-06-08 17:18:00,
2013-06-08 13:23:00,66.0,62.1,29.80,East,90,3.8,3.8,87,0.00,,,0.28,meteobridge,2013-06-08 17:23:00,
2013-06-08 13:29:00,66.9,61.9,29.80,WNW,293,3.1,3.1,84,0.00,,,0.28,meteobridge,2013-06-08 17:29:00,
2013-06-08 13:34:00,67.5,62.1,29.80,SE,135,3.1,3.8,83,0.00,,,0.28,meteobridge,2013-06-08 17:34:00,
2013-06-08 13:39:00,68.0,61.5,29.80,East,90,3.8,5.4,80,0.00,,,0.28,meteobridge,2013-06-08 17:39:00,
2013-06-08 13:44:00,68.5,61.3,29.80,West,270,2.2,3.1,78,0.00,,,0.28,meteobridge,2013-06-08 17:44:00,
2013-06-08 13:49:00,68.9,61.7,29.81,SE,135,2.2,3.1,78,0.00,,,0.28,meteobridge,2013-06-08 17:49:00,
2013-06-08 13:54:00,69.3,61.0,29.81,North,0,3.1,3.8,75,0.00,,,0.28,meteobridge,2013-06-08 17:54:00,
2013-06-08 14:00:00,68.9,61.3,29.81,SSE,158,2.2,3.1,77,0.00,,,0.28,meteobridge,2013-06-08 18:00:00,
2013-06-08 14:05:00,69.4,61.5,29.81,NW,315,4.5,4.5,76,0.00,,,0.28,meteobridge,2013-06-08 18:05:00,
2013-06-08 14:10:00,69.8,61.5,29.82,SW,225,4.5,4.5,75,0.00,,,0.28,meteobridge,2013-06-08 18:10:00,
2013-06-08 14:15:00,70.2,61.9,29.82,SW,225,3.1,3.8,75,0.00,,,0.28,meteobridge,2013-06-08 18:15:00,
2013-06-08 14:20:00,71.1,63.1,29.81,NE,45,3.1,3.1,76,0.00,,,0.28,meteobridge,2013-06-08 18:20:00,
2013-06-08 14:26:00,72.0,62.4,29.81,SW,225,3.1,3.1,72,0.00,,,0.28,meteobridge,2013-06-08 18:26:00,
2013-06-08 14:31:00,72.5,62.6,29.82,South,180,3.8,3.8,71,0.00,,,0.28,meteobridge,2013-06-08 18:31:00,
2013-06-08 14:36:00,72.5,61.7,29.82,North,0,3.1,3.1,69,0.00,,,0.28,meteobridge,2013-06-08 18:36:00,
2013-06-08 14:41:00,72.1,61.3,29.82,North,0,3.1,3.1,69,0.00,,,0.28,meteobridge,2013-06-08 18:41:00,
2013-06-08 14:46:00,72.5,62.2,29.82,South,180,3.1,3.8,70,0.00,,,0.28,meteobridge,2013-06-08 18:46:00,
2013-06-08 14:51:00,72.5,61.7,29.83,South,180,2.2,2.2,69,0.00,,,0.28,meteobridge,2013-06-08 18:51:00,
2013-06-08 14:57:00,73.2,63.3,29.83,North,0,5.4,5.4,71,0.00,,,0.28,meteobridge,2013-06-08 18:57:00,
2013-06-08 15:02:00,73.4,63.5,29.82,NW,315,2.2,3.1,71,0.00,,,0.28,meteobridge,2013-06-08 19:02:00,
2013-06-08 15:07:00,74.1,63.7,29.82,SE,135,3.1,3.1,70,0.00,,,0.28,meteobridge,2013-06-08 19:07:00,
2013-06-08 15:12:00,74.5,64.0,29.82,South,180,3.1,3.1,70,0.00,,,0.28,meteobridge,2013-06-08 19:12:00,
2013-06-08 15:17:00,75.4,63.7,29.83,East,90,3.1,4.5,67,0.00,,,0.28,meteobridge,2013-06-08 19:17:00,
2013-06-08 15:22:00,75.4,64.0,29.83,NE,45,3.1,5.4,68,0.00,,,0.28,meteobridge,2013-06-08 19:22:00,
2013-06-08 15:28:00,74.8,64.4,29.83,NE,45,2.2,3.1,70,0.00,,,0.28,meteobridge,2013-06-08 19:28:00,
2013-06-08 15:33:00,75.4,64.0,29.83,SE,135,3.8,3.8,68,0.00,,,0.28,meteobridge,2013-06-08 19:33:00,
2013-06-08 15:38:00,75.2,63.5,29.83,NW,315,3.8,3.8,67,0.00,,,0.28,meteobridge,2013-06-08 19:38:00,
2013-06-08 15:43:00,76.3,65.3,29.83,NE,45,3.1,3.1,69,0.00,,,0.28,meteobridge,2013-06-08 19:43:00,
2013-06-08 15:48:00,75.7,63.5,29.83,South,180,3.1,3.8,66,0.00,,,0.28,meteobridge,2013-06-08 19:48:00,
2013-06-08 15:53:00,75.2,64.4,29.83,NE,45,3.1,3.8,69,0.00,,,0.28,meteobridge,2013-06-08 19:53:00,
2013-06-08 15:59:00,75.2,63.9,29.83,NE,45,4.5,4.5,68,0.00,,,0.28,meteobridge,2013-06-08 19:59:00,
2013-06-08 16:04:00,74.7,63.9,29.83,SE,135,2.2,3.1,69,0.00,,,0.28,meteobridge,2013-06-08 20:04:00,
2013-06-08 16:09:00,74.7,64.2,29.84,North,0,5.4,5.4,70,0.00,,,0.28,meteobridge,2013-06-08 20:09:00,
2013-06-08 16:14:00,74.8,64.8,29.84,SE,135,2.2,2.2,71,0.00,,,0.28,meteobridge,2013-06-08 20:14:00,
2013-06-08 16:19:00,75.2,63.5,29.84,NE,45,5.4,6.0,67,0.00,,,0.28,meteobridge,2013-06-08 20:19:00,
2013-06-08 16:24:00,74.7,63.9,29.84,North,0,3.8,3.8,69,0.00,,,0.28,meteobridge,2013-06-08 20:24:00,
2013-06-08 16:30:00,74.3,63.9,29.84,East,90,1.6,3.1,70,0.00,,,0.28,meteobridge,2013-06-08 20:30:00,
2013-06-08 16:35:00,73.8,63.7,29.84,NW,315,1.6,2.2,71,0.00,,,0.28,meteobridge,2013-06-08 20:35:00,
2013-06-08 16:40:00,73.8,63.7,29.84,NE,45,2.2,4.5,71,0.00,,,0.28,meteobridge,2013-06-08 20:40:00,
2013-06-08 16:45:00,74.8,64.8,29.85,West,270,1.6,3.8,71,0.00,,,0.28,meteobridge,2013-06-08 20:45:00,
2013-06-08 16:50:00,75.2,64.4,29.84,ESE,113,2.2,3.1,69,0.00,,,0.28,meteobridge,2013-06-08 20:50:00,
2013-06-08 16:55:00,74.7,63.9,29.85,North,0,6.9,6.9,69,0.00,,,0.28,meteobridge,2013-06-08 20:55:00,
2013-06-08 17:01:00,73.9,63.5,29.85,South,180,3.1,3.1,70,0.00,,,0.28,meteobridge,2013-06-08 21:01:00,
2013-06-08 17:06:00,73.9,63.9,29.85,NE,45,3.1,3.8,71,0.00,,,0.28,meteobridge,2013-06-08 21:06:00,
2013-06-08 17:11:00,74.5,63.7,29.85,SW,225,4.5,4.5,69,0.00,,,0.28,meteobridge,2013-06-08 21:11:00,
2013-06-08 17:16:00,73.6,63.1,29.85,NE,45,5.4,5.4,70,0.00,,,0.28,meteobridge,2013-06-08 21:16:00,
2013-06-08 17:21:00,73.6,63.1,29.85,NE,45,3.1,4.5,70,0.00,,,0.28,meteobridge,2013-06-08 21:21:00,
2013-06-08 17:26:00,73.2,63.3,29.85,WSW,248,3.8,4.5,71,0.00,,,0.28,meteobridge,2013-06-08 21:26:00,
2013-06-08 17:31:00,72.7,63.1,29.86,NE,45,2.2,3.8,72,0.00,,,0.28,meteobridge,2013-06-08 21:31:00,
2013-06-08 17:37:00,72.3,62.8,29.86,NNE,23,4.5,4.5,72,0.00,,,0.28,meteobridge,2013-06-08 21:37:00,
2013-06-08 17:42:00,72.0,62.8,29.86,South,180,3.1,3.8,73,0.00,,,0.28,meteobridge,2013-06-08 21:42:00,
2013-06-08 17:47:00,71.8,62.6,29.86,North,0,3.8,3.8,73,0.00,,,0.28,meteobridge,2013-06-08 21:47:00,
2013-06-08 17:52:00,71.4,62.8,29.86,East,90,3.8,3.8,74,0.00,,,0.28,meteobridge,2013-06-08 21:52:00,
2013-06-08 17:57:00,70.7,62.4,29.86,NE,45,1.6,3.1,75,0.00,,,0.28,meteobridge,2013-06-08 21:57:00,
2013-06-08 18:02:00,70.7,62.8,29.86,East,90,1.6,3.1,76,0.00,,,0.28,meteobridge,2013-06-08 22:02:00,
2013-06-08 18:08:00,71.1,63.1,29.86,South,180,3.8,3.8,76,0.00,,,0.28,meteobridge,2013-06-08 22:08:00,
2013-06-08 18:13:00,70.5,63.0,29.86,NE,45,2.2,2.2,77,0.00,,,0.28,meteobridge,2013-06-08 22:13:00,
2013-06-08 18:18:00,70.0,62.8,29.86,NE,45,3.1,3.1,78,0.00,,,0.28,meteobridge,2013-06-08 22:18:00,
2013-06-08 18:23:00,69.6,62.8,29.86,NW,315,2.2,2.2,79,0.00,,,0.28,meteobridge,2013-06-08 22:23:00,
2013-06-08 18:28:00,69.4,63.0,29.86,SE,135,3.1,3.1,80,0.00,,,0.28,meteobridge,2013-06-08 22:28:00,
2013-06-08 18:33:00,69.6,63.1,29.86,NE,45,5.4,5.4,80,0.00,,,0.28,meteobridge,2013-06-08 22:33:00,
2013-06-08 18:39:00,69.6,62.8,29.87,SW,225,6.0,6.0,79,0.00,,,0.28,meteobridge,2013-06-08 22:39:00,
2013-06-08 18:44:00,69.6,62.8,29.87,East,90,2.2,3.8,79,0.00,,,0.28,meteobridge,2013-06-08 22:44:00,
2013-06-08 18:49:00,69.8,63.0,29.88,NE,45,3.1,5.4,79,0.00,,,0.28,meteobridge,2013-06-08 22:49:00,
2013-06-08 18:54:00,69.8,63.0,29.88,North,0,4.5,4.5,79,0.00,,,0.28,meteobridge,2013-06-08 22:54:00,
2013-06-08 18:59:00,69.6,63.5,29.88,North,0,3.8,3.8,81,0.00,,,0.28,meteobridge,2013-06-08 22:59:00,
2013-06-08 19:04:00,69.3,63.1,29.88,NE,45,2.2,2.2,81,0.00,,,0.28,meteobridge,2013-06-08 23:04:00,
2013-06-08 19:10:00,68.9,63.1,29.88,NE,45,2.2,3.8,82,0.00,,,0.28,meteobridge,2013-06-08 23:10:00,
2013-06-08 19:15:00,68.5,63.1,29.89,NW,315,2.2,3.8,83,0.00,,,0.28,meteobridge,2013-06-08 23:15:00,
2013-06-08 19:20:00,68.2,62.8,29.89,SE,135,1.6,3.1,83,0.00,,,0.28,meteobridge,2013-06-08 23:20:00,
2013-06-08 19:25:00,68.0,63.0,29.90,SW,225,2.2,3.1,84,0.00,,,0.28,meteobridge,2013-06-08 23:25:00,
2013-06-08 19:30:00,67.8,63.1,29.89,NE,45,2.2,2.2,85,0.00,,,0.28,meteobridge,2013-06-08 23:30:00,
2013-06-08 19:35:00,67.6,63.0,29.89,North,0,2.2,2.2,85,0.00,,,0.28,meteobridge,2013-06-08 23:35:00,
2013-06-08 19:41:00,67.6,63.3,29.90,NE,45,2.2,3.1,86,0.00,,,0.28,meteobridge,2013-06-08 23:41:00,
2013-06-08 19:46:00,67.3,63.0,29.89,SW,225,2.2,3.8,86,0.00,,,0.28,meteobridge,2013-06-08 23:46:00,
2013-06-08 19:51:00,67.3,63.0,29.90,West,270,3.1,3.1,86,0.00,,,0.28,meteobridge,2013-06-08 23:51:00,
2013-06-08 19:56:00,67.1,62.8,29.90,NW,315,3.1,3.1,86,0.00,,,0.28,meteobridge,2013-06-08 23:56:00,
2013-06-08 20:02:00,67.1,63.1,29.90,NE,45,2.2,3.1,87,0.00,,,0.28,meteobridge,2013-06-09 00:02:00,
2013-06-08 20:07:00,66.9,63.0,29.90,NE,45,1.6,3.1,87,0.00,,,0.28,meteobridge,2013-06-09 00:07:00,
2013-06-08 20:12:00,66.9,63.0,29.90,North,0,2.2,2.2,87,0.00,,,0.28,meteobridge,2013-06-09 00:12:00,
2013-06-08 20:17:00,66.7,63.1,29.90,North,0,3.1,4.5,88,0.00,,,0.28,meteobridge,2013-06-09 00:17:00,
2013-06-08 20:22:00,66.6,63.0,29.90,NE,45,2.2,2.2,88,0.00,,,0.28,meteobridge,2013-06-09 00:22:00,
2013-06-08 20:27:00,66.4,62.8,29.90,NE,45,0.7,1.6,88,0.00,,,0.28,meteobridge,2013-06-09 00:27:00,
2013-06-08 20:33:00,66.0,63.0,29.90,North,0,1.6,2.2,90,0.00,,,0.28,meteobridge,2013-06-09 00:33:00,
2013-06-08 20:38:00,65.8,62.8,29.91,North,0,0.7,2.2,90,0.00,,,0.28,meteobridge,2013-06-09 00:38:00,
2013-06-08 20:43:00,65.7,62.6,29.91,NW,315,2.2,2.2,90,0.00,,,0.28,meteobridge,2013-06-09 00:43:00,
2013-06-08 20:48:00,65.7,63.0,29.91,NE,45,0.7,0.7,91,0.00,,,0.28,meteobridge,2013-06-09 00:48:00,
2013-06-08 20:53:00,65.5,62.8,29.91,South,180,1.6,2.2,91,0.00,,,0.28,meteobridge,2013-06-09 00:53:00,
2013-06-08 20:58:00,65.5,63.1,29.92,SW,225,3.1,3.8,92,0.00,,,0.28,meteobridge,2013-06-09 00:58:00,
2013-06-08 21:04:00,65.5,63.1,29.91,North,0,1.6,1.6,92,0.00,,,0.28,meteobridge,2013-06-09 01:04:00,
2013-06-08 21:09:00,65.5,63.1,29.92,NE,45,2.2,2.2,92,0.00,,,0.28,meteobridge,2013-06-09 01:09:00,
2013-06-08 21:14:00,65.5,63.1,29.92,NW,315,1.6,1.6,92,0.00,,,0.28,meteobridge,2013-06-09 01:14:00,
2013-06-08 21:19:00,65.5,63.1,29.92,North,0,1.6,2.2,92,0.00,,,0.28,meteobridge,2013-06-09 01:19:00,
2013-06-08 21:24:00,65.3,63.0,29.93,West,270,2.2,2.2,92,0.00,,,0.28,meteobridge,2013-06-09 01:24:00,
2013-06-08 21:29:00,65.1,62.8,29.93,SW,225,1.6,2.2,92,0.00,,,0.28,meteobridge,2013-06-09 01:29:00,
2013-06-08 21:35:00,64.9,62.6,29.93,East,90,1.6,1.6,92,0.00,,,0.28,meteobridge,2013-06-09 01:35:00,
2013-06-08 21:40:00,64.8,62.4,29.93,NE,45,2.2,2.2,92,0.00,,,0.28,meteobridge,2013-06-09 01:40:00,
2013-06-08 21:45:00,64.6,62.4,29.93,West,270,0.7,0.7,93,0.00,,,0.28,meteobridge,2013-06-09 01:45:00,
2013-06-08 21:50:00,64.6,62.4,29.93,NE,45,0.0,0.0,93,0.00,,,0.28,meteobridge,2013-06-09 01:50:00,
2013-06-08 21:55:00,64.4,62.4,29.94,West,270,2.2,2.2,93,0.00,,,0.28,meteobridge,2013-06-09 01:55:00,
2013-06-08 22:00:00,64.2,61.9,29.95,SW,225,1.6,1.6,92,0.00,,,0.28,meteobridge,2013-06-09 02:00:00,
2013-06-08 22:06:00,64.0,62.1,29.94,NE,45,3.1,3.1,93,0.00,,,0.28,meteobridge,2013-06-09 02:06:00,
2013-06-08 22:11:00,63.9,61.9,29.94,SE,135,2.2,2.2,93,0.00,,,0.28,meteobridge,2013-06-09 02:11:00,
2013-06-08 22:16:00,63.7,61.7,29.94,West,270,3.1,3.1,93,0.00,,,0.28,meteobridge,2013-06-09 02:16:00,
2013-06-08 22:21:00,63.7,61.7,29.94,NE,45,1.6,1.6,93,0.00,,,0.28,meteobridge,2013-06-09 02:21:00,
2013-06-08 22:26:00,63.5,61.7,29.94,East,90,0.7,1.6,94,0.00,,,0.28,meteobridge,2013-06-09 02:26:00,
2013-06-08 22:31:00,63.3,61.5,29.94,SW,225,1.6,1.6,94,0.00,,,0.28,meteobridge,2013-06-09 02:31:00,
2013-06-08 22:36:00,63.3,61.5,29.94,NE,45,1.6,2.2,94,0.00,,,0.28,meteobridge,2013-06-09 02:36:00,
2013-06-08 22:41:00,63.3,61.5,29.94,SW,225,2.2,3.1,94,0.00,,,0.28,meteobridge,2013-06-09 02:41:00,
2013-06-08 22:46:00,63.3,61.5,29.94,East,90,1.6,2.2,94,0.00,,,0.28,meteobridge,2013-06-09 02:46:00,
2013-06-08 22:52:00,63.1,61.7,29.94,North,0,0.7,1.6,95,0.00,,,0.28,meteobridge,2013-06-09 02:52:00,
2013-06-08 22:57:00,63.0,61.5,29.94,West,270,0.7,0.7,95,0.00,,,0.28,meteobridge,2013-06-09 02:57:00,
2013-06-08 23:02:00,63.0,61.5,29.94,NE,45,1.6,2.2,95,0.00,,,0.28,meteobridge,2013-06-09 03:02:00,
2013-06-08 23:07:00,62.8,61.3,29.94,SE,135,0.0,0.7,95,0.00,,,0.28,meteobridge,2013-06-09 03:07:00,
2013-06-08 23:12:00,62.8,61.3,29.94,North,0,0.7,0.7,95,0.00,,,0.28,meteobridge,2013-06-09 03:12:00,
2013-06-08 23:17:00,62.6,61.5,29.95,North,0,0.0,0.7,96,0.00,,,0.28,meteobridge,2013-06-09 03:17:00,
2013-06-08 23:22:00,62.6,61.5,29.95,West,270,1.6,2.2,96,0.00,,,0.28,meteobridge,2013-06-09 03:22:00,
2013-06-08 23:28:00,62.6,61.5,29.95,North,0,0.7,0.7,96,0.00,,,0.28,meteobridge,2013-06-09 03:28:00,
2013-06-08 23:33:00,62.4,61.5,29.95,NE,45,0.7,0.7,97,0.00,,,0.28,meteobridge,2013-06-09 03:33:00,
2013-06-08 23:38:00,62.4,61.5,29.96,NE,45,0.0,0.7,97,0.00,,,0.28,meteobridge,2013-06-09 03:38:00,
2013-06-08 23:43:00,62.4,61.5,29.95,NE,45,0.7,1.6,97,0.00,,,0.28,meteobridge,2013-06-09 03:43:00,
2013-06-08 23:48:00,62.2,61.3,29.96,NW,315,0.7,2.2,97,0.00,,,0.28,meteobridge,2013-06-09 03:48:00,
2013-06-08 23:53:00,62.2,61.3,29.96,NE,45,0.0,0.7,97,0.00,,,0.28,meteobridge,2013-06-09 03:53:00,
2013-06-08 23:59:00,62.2,61.3,29.96,SE,135,1.6,1.6,97,0.00,,,0.28,meteobridge,2013-06-09 03:59:00,